TimeEDT,TemperatureF,Dew PointF,Humidity,Sea Level PressureIn,VisibilityMPH,Wind Direction,Wind SpeedMPH,Gust SpeedMPH,PrecipitationIn,Events,Conditions,WindDirDegrees,DateUTC
12:53 AM,64.9,52.0,63,29.86,10.0,South,10.4,-,N/A,,Scattered Clouds,190,2012-10-06 04:53:00
1:53 AM,64.0,52.0,65,29.85,10.0,Variable,4.6,-,N/A,,Scattered Clouds,0,2012-10-06 05:53:00
2:53 AM,62.1,55.9,80,29.83,6.0,NW,4.6,-,N/A,,Haze,320,2012-10-06 06:53:00
3:53 AM,57.9,53.1,84,29.86,5.0,WNW,9.2,-,N/A,,Haze,300,2012-10-06 07:53:00
4:49 AM,53.6,48.2,82,29.89,10.0,NW,12.7,24.2,0.00,Rain,Light Rain,320,2012-10-06 08:49:00
4:53 AM,53.1,48.0,83,29.89,10.0,NW,11.5,24.2,0.00,Rain,Light Rain,320,2012-10-06 08:53:00
5:29 AM,48.2,46.4,93,29.89,4.0,Variable,3.5,-,0.07,Rain,Rain,0,2012-10-06 09:29:00
5:37 AM,48.2,46.4,93,29.89,3.0,North,3.5,-,0.10,Rain,Rain,350,2012-10-06 09:37:00
5:53 AM,48.9,45.0,86,29.91,7.0,NW,5.8,-,0.13,Rain,Light Rain,310,2012-10-06 09:53:00
6:00 AM,48.2,44.6,87,29.91,10.0,NNW,9.2,-,0.00,Rain,Light Rain,330,2012-10-06 10:00:00
6:06 AM,48.2,44.6,87,29.91,10.0,NNW,10.4,-,0.00,Rain,Light Rain,330,2012-10-06 10:06:00
7:22 AM,46.4,44.6,93,29.94,2.0,NW,5.8,-,0.00,Rain,Light Rain,320,2012-10-06 11:22:00
7:53 AM,46.9,43.0,86,29.96,2.0,WNW,8.1,-,0.00,Rain,Light Rain,300,2012-10-06 11:53:00
8:53 AM,46.9,43.0,86,29.98,2.0,Variable,5.8,-,0.00,Rain,Light Rain,0,2012-10-06 12:53:00
8:56 AM,46.4,42.8,87,29.97,3.0,WNW,9.2,-,0.00,Rain,Light Rain,290,2012-10-06 12:56:00
9:50 AM,48.2,42.8,82,30.00,10.0,WNW,4.6,-,0.00,Rain,Light Rain,290,2012-10-06 13:50:00
9:53 AM,48.2,42.8,82,30.00,10.0,WNW,8.1,-,N/A,Rain,Light Rain,300,2012-10-06 13:53:00
10:00 AM,48.2,42.8,82,30.00,10.0,Variable,5.8,-,0.00,,Overcast,0,2012-10-06 14:00:00
10:19 AM,48.2,42.8,82,30.01,10.0,WNW,8.1,-,0.00,,Overcast,290,2012-10-06 14:19:00
10:53 AM,46.9,42.1,83,30.03,10.0,WNW,9.2,-,0.00,,Overcast,290,2012-10-06 14:53:00
11:27 AM,48.2,42.8,82,30.02,10.0,West,10.4,19.6,N/A,,Mostly Cloudy,280,2012-10-06 15:27:00
11:53 AM,50.0,39.0,66,30.02,10.0,West,10.4,16.1,N/A,,Mostly Cloudy,270,2012-10-06 15:53:00
12:28 PM,51.8,37.4,58,30.02,10.0,West,11.5,19.6,N/A,,Scattered Clouds,280,2012-10-06 16:28:00
12:53 PM,52.0,36.0,54,30.04,10.0,West,9.2,21.9,N/A,,Clear,280,2012-10-06 16:53:00
1:53 PM,54.0,35.1,49,30.02,10.0,West,12.7,19.6,N/A,,Partly Cloudy,270,2012-10-06 17:53:00
2:53 PM,55.0,34.0,45,30.02,10.0,WNW,8.1,20.7,N/A,,Partly Cloudy,290,2012-10-06 18:53:00
3:53 PM,57.0,34.0,42,30.01,10.0,WNW,6.9,-,N/A,,Clear,300,2012-10-06 19:53:00
4:53 PM,55.9,32.0,40,30.01,10.0,Variable,6.9,17.3,N/A,,Clear,0,2012-10-06 20:53:00
5:53 PM,55.0,32.0,42,30.02,10.0,West,8.1,-,N/A,,Clear,280,2012-10-06 21:53:00
6:53 PM,53.6,32.0,44,30.03,10.0,WNW,6.9,-,N/A,,Clear,300,2012-10-06 22:53:00
7:53 PM,51.1,33.1,50,30.07,10.0,NW,5.8,-,N/A,,Clear,310,2012-10-06 23:53:00
8:53 PM,48.9,34.0,56,30.09,10.0,NNW,6.9,-,N/A,,Clear,340,2012-10-07 00:53:00
9:53 PM,48.0,33.1,56,30.10,10.0,NNW,8.1,-,N/A,,Clear,330,2012-10-07 01:53:00
10:53 PM,46.9,34.0,61,30.12,10.0,NNW,4.6,-,N/A,,Clear,340,2012-10-07 02:53:00
11:53 PM,48.0,34.0,58,30.12,10.0,Calm,Calm,-,N/A,,Clear,0,2012-10-07 03:53:00